Time,TemperatureF,DewpointF,PressureIn,WindDirection,WindDirectionDegrees,WindSpeedMPH,WindSpeedGustMPH,Humidity,HourlyPrecipIn,Conditions,Clouds,dailyrainin,SoftwareType,DateUTC
2013-06-13 00:00:00,78.3,74.1,29.96,SSW,201,0.0,0.0,87,0.00,,,0.01,Wunderground v.1.15,2013-06-13 04:00:00,
2013-06-13 00:05:00,78.1,73.9,29.96,SSW,201,0.0,0.0,87,0.00,,,0.00,Wunderground v.1.15,2013-06-13 04:05:00,
2013-06-13 00:10:00,78.1,73.9,29.96,SSW,201,0.0,0.0,87,0.00,,,0.00,Wunderground v.1.15,2013-06-13 04:10:00,
2013-06-13 00:15:00,77.9,73.7,29.96,SSW,201,0.0,0.0,87,0.00,,,0.00,Wunderground v.1.15,2013-06-13 04:15:00,
2013-06-13 00:20:00,77.9,73.7,29.96,SSW,201,0.0,0.0,87,0.00,,,0.00,Wunderground v.1.15,2013-06-13 04:20:00,
2013-06-13 00:30:00,77.7,73.9,29.96,SSW,201,0.0,0.0,88,0.00,,,0.00,Wunderground v.1.15,2013-06-13 04:30:00,
2013-06-13 00:35:00,77.7,73.9,29.96,SSW,201,0.0,0.0,88,0.00,,,0.00,Wunderground v.1.15,2013-06-13 04:35:00,
2013-06-13 00:45:00,77.7,73.9,29.96,SSW,201,0.0,0.0,88,0.00,,,0.00,Wunderground v.1.15,2013-06-13 04:45:00,
2013-06-13 00:55:00,77.6,73.8,29.96,SSW,201,0.0,0.0,88,0.00,,,0.00,Wunderground v.1.15,2013-06-13 04:55:00,
2013-06-13 01:00:00,77.4,73.6,29.96,SSW,201,0.0,0.0,88,0.00,,,0.00,Wunderground v.1.15,2013-06-13 05:00:00,
2013-06-13 01:05:00,77.4,73.6,29.96,SSW,201,0.0,0.0,88,0.00,,,0.00,Wunderground v.1.15,2013-06-13 05:05:00,
2013-06-13 01:15:00,77.2,73.7,29.96,SSW,201,0.0,0.0,89,0.00,,,0.00,Wunderground v.1.15,2013-06-13 05:15:00,
2013-06-13 01:20:00,77.2,73.7,29.95,SSW,201,0.0,0.0,89,0.00,,,0.00,Wunderground v.1.15,2013-06-13 05:20:00,
2013-06-13 01:25:00,77.0,73.8,29.95,SSW,201,0.0,0.0,90,0.00,,,0.00,Wunderground v.1.15,2013-06-13 05:25:00,
2013-06-13 01:35:00,76.8,73.6,29.95,SSW,201,0.0,0.0,90,0.00,,,0.00,Wunderground v.1.15,2013-06-13 05:35:00,
2013-06-13 01:45:00,76.7,73.9,29.95,SSW,201,0.0,0.0,91,0.00,,,0.00,Wunderground v.1.15,2013-06-13 05:45:00,
2013-06-13 01:50:00,76.5,73.7,29.94,SSW,201,0.0,0.0,91,0.00,,,0.00,Wunderground v.1.15,2013-06-13 05:50:00,
2013-06-13 02:00:00,76.3,73.5,29.94,SSW,201,0.0,0.0,91,0.00,,,0.00,Wunderground v.1.15,2013-06-13 06:00:00,
2013-06-13 02:05:00,76.3,73.5,29.93,SSW,201,0.0,0.0,91,0.00,,,0.00,Wunderground v.1.15,2013-06-13 06:05:00,
2013-06-13 02:15:00,76.1,73.6,29.93,SSW,201,0.0,0.0,92,0.00,,,0.00,Wunderground v.1.15,2013-06-13 06:15:00,
2013-06-13 02:20:00,76.1,73.6,29.93,SSW,201,0.0,0.0,92,0.00,,,0.00,Wunderground v.1.15,2013-06-13 06:20:00,
2013-06-13 02:25:00,76.1,73.6,29.93,SSW,201,0.0,0.0,92,0.00,,,0.00,Wunderground v.1.15,2013-06-13 06:25:00,
2013-06-13 02:35:00,76.0,73.5,29.93,SSW,201,0.0,0.0,92,0.00,,,0.00,Wunderground v.1.15,2013-06-13 06:35:00,
2013-06-13 02:45:00,76.0,73.5,29.93,SSW,201,0.0,0.0,92,0.00,,,0.00,Wunderground v.1.15,2013-06-13 06:45:00,
2013-06-13 02:55:00,75.8,73.3,29.93,SSW,201,0.0,0.0,92,0.00,,,0.00,Wunderground v.1.15,2013-06-13 06:55:00,
2013-06-13 03:05:00,75.6,73.1,29.92,SSW,201,0.0,0.0,92,0.00,,,0.00,Wunderground v.1.15,2013-06-13 07:05:00,
2013-06-13 03:15:00,75.4,73.2,29.92,SSW,201,0.0,0.0,93,0.00,,,0.00,Wunderground v.1.15,2013-06-13 07:15:00,
2013-06-13 03:20:00,75.4,73.2,29.92,SSW,201,0.0,0.0,93,0.00,,,0.00,Wunderground v.1.15,2013-06-13 07:20:00,
2013-06-13 03:25:00,75.3,73.1,29.92,SSW,201,0.0,0.0,93,0.00,,,0.00,Wunderground v.1.15,2013-06-13 07:25:00,
2013-06-13 03:35:00,75.1,72.9,29.92,SSW,201,0.0,0.0,93,0.00,,,0.00,Wunderground v.1.15,2013-06-13 07:35:00,
2013-06-13 03:45:00,74.9,72.7,29.92,SSW,201,0.0,0.0,93,0.00,,,0.00,Wunderground v.1.15,2013-06-13 07:45:00,
2013-06-13 03:55:00,74.7,72.9,29.92,SSW,201,0.0,0.0,94,0.00,,,0.00,Wunderground v.1.15,2013-06-13 07:55:00,
2013-06-13 04:05:00,74.7,72.9,29.92,SSW,201,0.0,0.0,94,0.00,,,0.00,Wunderground v.1.15,2013-06-13 08:05:00,
2013-06-13 04:15:00,74.6,72.8,29.92,SSW,201,0.0,0.0,94,0.00,,,0.00,Wunderground v.1.15,2013-06-13 08:15:00,
2013-06-13 04:20:00,74.4,72.6,29.92,SSW,201,0.0,0.0,94,0.00,,,0.00,Wunderground v.1.15,2013-06-13 08:20:00,
2013-06-13 04:30:00,74.4,72.6,29.92,SSW,201,0.0,0.0,94,0.00,,,0.00,Wunderground v.1.15,2013-06-13 08:30:00,
2013-06-13 04:40:00,74.2,72.7,29.91,SSW,201,0.0,0.0,95,0.00,,,0.00,Wunderground v.1.15,2013-06-13 08:40:00,
2013-06-13 04:45:00,74.2,72.7,29.91,SSW,201,0.0,0.0,95,0.00,,,0.00,Wunderground v.1.15,2013-06-13 08:45:00,
2013-06-13 04:55:00,74.2,72.7,29.91,SSW,201,0.0,0.0,95,0.00,,,0.00,Wunderground v.1.15,2013-06-13 08:55:00,
2013-06-13 05:05:00,74.0,72.5,29.91,SSW,201,0.0,0.0,95,0.00,,,0.00,Wunderground v.1.15,2013-06-13 09:05:00,
2013-06-13 05:15:00,74.0,72.5,29.91,SSW,201,0.0,0.0,95,0.00,,,0.00,Wunderground v.1.15,2013-06-13 09:15:00,
2013-06-13 05:20:00,74.0,72.5,29.91,SSW,201,0.0,0.0,95,0.00,,,0.00,Wunderground v.1.15,2013-06-13 09:20:00,
2013-06-13 05:30:00,74.0,72.8,29.91,SSW,201,0.0,0.0,96,0.00,,,0.00,Wunderground v.1.15,2013-06-13 09:30:00,
2013-06-13 05:40:00,73.9,72.7,29.91,SSW,201,0.0,0.0,96,0.00,,,0.00,Wunderground v.1.15,2013-06-13 09:40:00,
2013-06-13 05:50:00,73.9,72.7,29.91,SSW,201,0.0,0.0,96,0.00,,,0.00,Wunderground v.1.15,2013-06-13 09:50:00,
2013-06-13 06:00:00,73.7,72.5,29.91,SSW,201,0.0,0.0,96,0.00,,,0.00,Wunderground v.1.15,2013-06-13 10:00:00,
2013-06-13 06:05:00,73.7,72.5,29.92,SSW,201,0.0,0.0,96,0.00,,,0.00,Wunderground v.1.15,2013-06-13 10:05:00,
2013-06-13 06:15:00,73.7,72.5,29.92,SSW,200,0.0,0.0,96,0.00,,,0.00,Wunderground v.1.15,2013-06-13 10:15:00,
2013-06-13 06:20:00,73.7,72.5,29.92,SSW,200,0.0,0.0,96,0.00,,,0.00,Wunderground v.1.15,2013-06-13 10:20:00,
2013-06-13 06:30:00,73.7,72.5,29.93,SSW,200,0.0,0.0,96,0.00,,,0.00,Wunderground v.1.15,2013-06-13 10:30:00,
2013-06-13 06:40:00,73.7,72.5,29.93,SSW,200,0.0,0.0,96,0.00,,,0.00,Wunderground v.1.15,2013-06-13 10:40:00,
2013-06-13 06:50:00,73.9,72.7,29.94,SSW,200,0.0,0.0,96,0.00,,,0.00,Wunderground v.1.15,2013-06-13 10:50:00,
2013-06-13 07:00:00,74.0,72.8,29.94,SSW,200,0.0,0.0,96,0.00,,,0.00,Wunderground v.1.15,2013-06-13 11:00:00,
2013-06-13 07:05:00,74.2,73.0,29.94,SSW,200,0.0,0.0,96,0.00,,,0.00,Wunderground v.1.15,2013-06-13 11:05:00,
2013-06-13 07:15:00,74.4,73.2,29.94,SSW,200,0.0,0.0,96,0.00,,,0.00,Wunderground v.1.15,2013-06-13 11:15:00,
2013-06-13 07:25:00,74.7,73.8,29.95,SSW,200,0.0,0.0,97,0.00,,,0.00,Wunderground v.1.15,2013-06-13 11:25:00,
2013-06-13 07:30:00,75.1,74.2,29.95,SSW,200,0.0,0.0,97,0.00,,,0.00,Wunderground v.1.15,2013-06-13 11:30:00,
2013-06-13 07:40:00,75.4,74.2,29.95,SSW,203,0.0,0.0,96,0.00,,,0.00,Wunderground v.1.15,2013-06-13 11:40:00,
2013-06-13 07:50:00,76.0,74.8,29.96,SSW,203,0.0,0.0,96,0.00,,,0.00,Wunderground v.1.15,2013-06-13 11:50:00,
2013-06-13 07:55:00,76.3,75.1,29.96,SSW,203,0.0,0.0,96,0.00,,,0.00,Wunderground v.1.15,2013-06-13 11:55:00,
2013-06-13 08:05:00,77.0,75.5,29.96,SW,227,0.0,0.0,95,0.00,,,0.00,Wunderground v.1.15,2013-06-13 12:05:00,
2013-06-13 08:15:00,77.9,76.0,29.96,SW,227,0.0,0.0,94,0.00,,,0.00,Wunderground v.1.15,2013-06-13 12:15:00,
2013-06-13 08:20:00,78.3,76.1,29.96,SW,228,0.0,0.0,93,0.00,,,0.00,Wunderground v.1.15,2013-06-13 12:20:00,
2013-06-13 08:25:00,78.6,76.1,29.96,SW,228,0.0,0.0,92,0.00,,,0.00,Wunderground v.1.15,2013-06-13 12:25:00,
2013-06-13 08:35:00,79.4,76.5,29.96,SW,228,0.0,0.0,91,0.00,,,0.00,Wunderground v.1.15,2013-06-13 12:35:00,
2013-06-13 08:40:00,79.9,76.7,29.96,SW,228,0.0,0.0,90,0.00,,,0.00,Wunderground v.1.15,2013-06-13 12:40:00,
2013-06-13 08:50:00,80.7,76.5,29.96,SW,228,0.0,0.0,87,0.00,,,0.00,Wunderground v.1.15,2013-06-13 12:50:00,
2013-06-13 09:00:00,81.2,76.3,29.96,WSW,258,0.0,0.0,85,0.00,,,0.00,Wunderground v.1.15,2013-06-13 13:00:00,
2013-06-13 09:05:00,81.4,76.1,29.97,WSW,258,0.0,0.0,84,0.00,,,0.00,Wunderground v.1.15,2013-06-13 13:05:00,
2013-06-13 09:15:00,82.2,76.2,29.97,SW,223,0.0,0.0,82,0.00,,,0.00,Wunderground v.1.15,2013-06-13 13:15:00,
2013-06-13 09:20:00,82.6,75.8,29.96,WNW,291,0.0,0.0,80,0.00,,,0.00,Wunderground v.1.15,2013-06-13 13:20:00,
2013-06-13 09:30:00,83.2,75.6,29.96,WSW,247,0.0,0.0,78,0.00,,,0.00,Wunderground v.1.15,2013-06-13 13:30:00,
2013-06-13 09:40:00,84.1,74.9,29.96,WSW,238,0.0,0.0,74,0.00,,,0.00,Wunderground v.1.15,2013-06-13 13:40:00,
2013-06-13 09:45:00,84.7,75.9,29.96,SW,236,0.0,3.0,75,0.00,,,0.00,Wunderground v.1.15,2013-06-13 13:45:00,
2013-06-13 09:55:00,85.5,74.6,29.96,SW,226,0.0,0.0,70,0.00,,,0.00,Wunderground v.1.15,2013-06-13 13:55:00,
2013-06-13 10:05:00,86.5,74.7,29.96,SW,234,0.0,0.0,68,0.00,,,0.00,Wunderground v.1.15,2013-06-13 14:05:00,
2013-06-13 10:15:00,86.3,74.5,29.96,West,265,0.0,0.0,68,0.00,,,0.00,Wunderground v.1.15,2013-06-13 14:15:00,
2013-06-13 10:25:00,87.2,73.5,29.96,West,281,0.0,0.0,64,0.00,,,0.00,Wunderground v.1.15,2013-06-13 14:25:00,
2013-06-13 10:35:00,87.8,73.6,29.96,SW,230,0.0,2.0,63,0.00,,,0.00,Wunderground v.1.15,2013-06-13 14:35:00,
2013-06-13 10:40:00,87.8,74.6,29.96,SW,215,0.0,0.0,65,0.00,,,0.00,Wunderground v.1.15,2013-06-13 14:40:00,
2013-06-13 10:50:00,88.4,70.2,29.96,WSW,245,1.0,1.0,55,0.00,,,0.00,Wunderground v.1.15,2013-06-13 14:50:00,
2013-06-13 11:00:00,89.0,71.8,29.96,SW,219,0.0,0.0,57,0.00,,,0.00,Wunderground v.1.15,2013-06-13 15:00:00,
2013-06-13 11:05:00,89.0,71.3,29.96,SW,224,1.0,2.0,56,0.00,,,0.00,Wunderground v.1.15,2013-06-13 15:05:00,
2013-06-13 11:15:00,89.0,71.8,29.96,NW,306,1.0,2.0,57,0.00,,,0.00,Wunderground v.1.15,2013-06-13 15:15:00,
2013-06-13 11:20:00,89.5,72.8,29.96,WNW,295,0.0,0.0,58,0.00,,,0.00,Wunderground v.1.15,2013-06-13 15:20:00,
2013-06-13 11:30:00,89.9,72.6,29.96,SW,234,0.0,1.0,57,0.00,,,0.00,Wunderground v.1.15,2013-06-13 15:30:00,
2013-06-13 11:35:00,89.9,72.1,29.96,SW,231,0.0,1.0,56,0.00,,,0.00,Wunderground v.1.15,2013-06-13 15:35:00,
2013-06-13 11:45:00,89.9,72.1,29.96,SSW,207,0.0,2.0,56,0.00,,,0.00,Wunderground v.1.15,2013-06-13 15:45:00,
2013-06-13 11:50:00,90.3,72.5,29.96,WSW,258,0.0,0.0,56,0.00,,,0.00,Wunderground v.1.15,2013-06-13 15:50:00,
2013-06-13 12:00:00,91.0,72.6,29.95,SSW,197,0.0,0.0,55,0.00,,,0.00,Wunderground v.1.15,2013-06-13 16:00:00,
2013-06-13 12:05:00,91.0,73.1,29.95,SW,228,1.0,2.0,56,0.00,,,0.00,Wunderground v.1.15,2013-06-13 16:05:00,
2013-06-13 12:15:00,91.2,70.5,29.95,SW,229,1.0,1.0,51,0.00,,,0.00,Wunderground v.1.15,2013-06-13 16:15:00,
2013-06-13 12:25:00,91.4,69.6,29.95,SW,226,2.0,3.0,49,0.00,,,0.00,Wunderground v.1.15,2013-06-13 16:25:00,
2013-06-13 12:35:00,92.1,71.9,29.94,SW,224,1.0,1.0,52,0.00,,,0.00,Wunderground v.1.15,2013-06-13 16:35:00,
2013-06-13 12:40:00,92.3,72.1,29.94,NNW,340,1.0,3.0,52,0.00,,,0.00,Wunderground v.1.15,2013-06-13 16:40:00,
2013-06-13 12:50:00,92.5,73.4,29.93,SE,141,0.0,0.0,54,0.00,,,0.00,Wunderground v.1.15,2013-06-13 16:50:00,
2013-06-13 13:00:00,92.3,71.6,29.93,SSW,193,1.0,1.0,51,0.00,,,0.00,Wunderground v.1.15,2013-06-13 17:00:00,
2013-06-13 13:05:00,92.7,70.7,29.93,WNW,294,1.0,1.0,49,0.00,,,0.00,Wunderground v.1.15,2013-06-13 17:05:00,
2013-06-13 13:15:00,92.9,70.3,29.93,SW,221,1.0,2.0,48,0.00,,,0.00,Wunderground v.1.15,2013-06-13 17:15:00,
2013-06-13 13:20:00,92.9,70.3,29.92,WSW,244,1.0,2.0,48,0.00,,,0.00,Wunderground v.1.15,2013-06-13 17:20:00,
2013-06-13 13:30:00,91.8,71.1,29.92,SW,223,2.0,2.0,51,0.00,,,0.00,Wunderground v.1.15,2013-06-13 17:30:00,
2013-06-13 13:40:00,92.5,69.3,29.92,WSW,242,1.0,1.0,47,0.00,,,0.00,Wunderground v.1.15,2013-06-13 17:40:00,
2013-06-13 13:50:00,93.2,70.6,29.92,WSW,252,1.0,1.0,48,0.00,,,0.00,Wunderground v.1.15,2013-06-13 17:50:00,
2013-06-13 13:55:00,93.4,71.4,29.92,West,274,1.0,4.0,49,0.00,,,0.00,Wunderground v.1.15,2013-06-13 17:55:00,
2013-06-13 14:00:00,93.4,69.5,29.92,SSW,211,1.0,1.0,46,0.00,,,0.00,Wunderground v.1.15,2013-06-13 18:00:00,
2013-06-13 14:05:00,93.8,69.9,29.91,WSW,255,2.0,2.0,46,0.00,,,0.00,Wunderground v.1.15,2013-06-13 18:05:00,
2013-06-13 14:15:00,93.6,70.3,29.91,SSW,204,2.0,2.0,47,0.00,,,0.00,Wunderground v.1.15,2013-06-13 18:15:00,
2013-06-13 14:25:00,92.9,70.3,29.90,NW,311,2.0,4.0,48,0.00,,,0.00,Wunderground v.1.15,2013-06-13 18:25:00,
2013-06-13 14:35:00,93.2,70.0,29.90,SW,231,0.0,1.0,47,0.00,,,0.00,Wunderground v.1.15,2013-06-13 18:35:00,
2013-06-13 14:45:00,93.6,71.0,29.90,SW,232,2.0,4.0,48,0.00,,,0.00,Wunderground v.1.15,2013-06-13 18:45:00,
2013-06-13 14:55:00,93.2,72.4,29.90,SSW,211,1.0,2.0,51,0.00,,,0.00,Wunderground v.1.15,2013-06-13 18:55:00,
2013-06-13 15:05:00,93.6,69.7,29.89,NNW,329,2.0,2.0,46,0.00,,,0.00,Wunderground v.1.15,2013-06-13 19:05:00,
2013-06-13 15:15:00,93.8,70.5,29.89,WSW,257,1.0,2.0,47,0.00,,,0.00,Wunderground v.1.15,2013-06-13 19:15:00,
2013-06-13 15:20:00,94.0,69.4,29.88,WNW,284,1.0,1.0,45,0.00,,,0.00,Wunderground v.1.15,2013-06-13 19:20:00,
2013-06-13 18:10:00,89.3,69.4,29.85,SW,225,2.0,4.0,52,0.00,,,0.00,Wunderground v.1.15,2013-06-13 22:10:00,
2013-06-13 18:20:00,88.8,67.2,29.85,SW,229,1.0,1.0,49,0.00,,,0.00,Wunderground v.1.15,2013-06-13 22:20:00,
2013-06-13 18:25:00,88.8,67.2,29.85,WNW,282,2.0,2.0,49,0.00,,,0.00,Wunderground v.1.15,2013-06-13 22:25:00,
2013-06-13 18:35:00,88.6,67.6,29.84,SW,225,1.0,2.0,50,0.00,,,0.00,Wunderground v.1.15,2013-06-13 22:35:00,
2013-06-13 18:45:00,88.2,67.2,29.84,SSW,192,2.0,7.0,50,0.00,,,0.00,Wunderground v.1.15,2013-06-13 22:45:00,
2013-06-13 18:50:00,87.8,66.8,29.84,SW,236,2.0,2.0,50,0.00,,,0.00,Wunderground v.1.15,2013-06-13 22:50:00,
2013-06-13 19:00:00,87.6,67.8,29.84,SW,224,1.0,1.0,52,0.00,,,0.00,Wunderground v.1.15,2013-06-13 23:00:00,
2013-06-13 19:05:00,87.4,68.7,29.84,West,270,1.0,1.0,54,0.00,,,0.00,Wunderground v.1.15,2013-06-13 23:05:00,
2013-06-13 19:15:00,87.0,68.3,29.84,SW,232,0.0,1.0,54,0.00,,,0.00,Wunderground v.1.15,2013-06-13 23:15:00,
2013-06-13 19:20:00,86.7,68.6,29.84,SW,230,0.0,0.0,55,0.00,,,0.00,Wunderground v.1.15,2013-06-13 23:20:00,
2013-06-13 19:25:00,86.3,69.3,29.84,SW,226,1.0,1.0,57,0.00,,,0.00,Wunderground v.1.15,2013-06-13 23:25:00,
2013-06-13 19:35:00,85.7,69.7,29.84,SW,221,1.0,5.0,59,0.00,,,0.00,Wunderground v.1.15,2013-06-13 23:35:00,
2013-06-13 19:40:00,85.5,70.0,29.84,SW,221,0.0,0.0,60,0.00,,,0.00,Wunderground v.1.15,2013-06-13 23:40:00,
2013-06-13 19:50:00,84.9,69.5,29.84,SW,227,0.0,3.0,60,0.00,,,0.00,Wunderground v.1.15,2013-06-13 23:50:00,
2013-06-13 20:00:00,84.3,70.3,29.84,SW,223,1.0,1.0,63,0.00,,,0.00,Wunderground v.1.15,2013-06-14 00:00:00,
2013-06-13 20:05:00,84.1,70.6,29.83,SW,234,0.0,1.0,64,0.00,,,0.00,Wunderground v.1.15,2013-06-14 00:05:00,
2013-06-13 20:15:00,83.6,70.6,29.83,WSW,257,0.0,0.0,65,0.00,,,0.00,Wunderground v.1.15,2013-06-14 00:15:00,
2013-06-13 20:25:00,83.0,70.9,29.84,WSW,242,0.0,1.0,67,0.00,,,0.00,Wunderground v.1.15,2013-06-14 00:25:00,
2013-06-13 20:35:00,82.6,71.4,29.83,WSW,242,0.0,0.0,69,0.00,,,0.00,Wunderground v.1.15,2013-06-14 00:35:00,
2013-06-13 20:45:00,82.0,71.7,29.83,WSW,256,0.0,0.0,71,0.00,,,0.00,Wunderground v.1.15,2013-06-14 00:45:00,
2013-06-13 20:50:00,81.8,72.3,29.84,SSW,199,0.0,1.0,73,0.00,,,0.00,Wunderground v.1.15,2013-06-14 00:50:00,
2013-06-13 21:00:00,81.4,72.3,29.84,SW,217,0.0,1.0,74,0.00,,,0.00,Wunderground v.1.15,2013-06-14 01:00:00,
2013-06-13 21:05:00,81.2,72.5,29.84,SSW,205,0.0,1.0,75,0.00,,,0.00,Wunderground v.1.15,2013-06-14 01:05:00,
2013-06-13 21:15:00,80.9,73.0,29.84,SW,225,0.0,0.0,77,0.00,,,0.00,Wunderground v.1.15,2013-06-14 01:15:00,
2013-06-13 21:20:00,80.7,72.8,29.84,West,275,0.0,0.0,77,0.00,,,0.00,Wunderground v.1.15,2013-06-14 01:20:00,
2013-06-13 21:30:00,80.3,73.2,29.84,WSW,247,0.0,0.0,79,0.00,,,0.00,Wunderground v.1.15,2013-06-14 01:30:00,
2013-06-13 21:40:00,79.9,73.2,29.85,WSW,247,0.0,0.0,80,0.00,,,0.00,Wunderground v.1.15,2013-06-14 01:40:00,
2013-06-13 21:45:00,79.8,73.1,29.85,WSW,247,0.0,0.0,80,0.00,,,0.00,Wunderground v.1.15,2013-06-14 01:45:00,
2013-06-13 21:55:00,79.6,73.3,29.85,WSW,247,0.0,0.0,81,0.00,,,0.00,Wunderground v.1.15,2013-06-14 01:55:00,
2013-06-13 22:05:00,79.2,73.2,29.85,WSW,247,0.0,0.0,82,0.00,,,0.00,Wunderground v.1.15,2013-06-14 02:05:00,
2013-06-13 22:15:00,79.0,73.4,29.85,WSW,247,0.0,0.0,83,0.00,,,0.00,Wunderground v.1.15,2013-06-14 02:15:00,
2013-06-13 22:25:00,78.8,73.6,29.85,WSW,247,0.0,0.0,84,0.00,,,0.00,Wunderground v.1.15,2013-06-14 02:25:00,
2013-06-13 22:30:00,78.6,73.7,29.85,WSW,247,0.0,0.0,85,0.00,,,0.00,Wunderground v.1.15,2013-06-14 02:30:00,
2013-06-13 22:40:00,78.3,73.4,29.85,WSW,247,0.0,0.0,85,0.00,,,0.00,Wunderground v.1.15,2013-06-14 02:40:00,
2013-06-13 22:50:00,78.1,73.6,29.86,WSW,247,0.0,0.0,86,0.00,,,0.00,Wunderground v.1.15,2013-06-14 02:50:00,
2013-06-13 23:00:00,77.7,73.5,29.86,WSW,247,0.0,0.0,87,0.00,,,0.00,Wunderground v.1.15,2013-06-14 03:00:00,
2013-06-13 23:05:00,77.7,73.5,29.86,WSW,247,0.0,0.0,87,0.00,,,0.00,Wunderground v.1.15,2013-06-14 03:05:00,
2013-06-13 23:15:00,77.4,73.6,29.85,WSW,247,0.0,0.0,88,0.00,,,0.00,Wunderground v.1.15,2013-06-14 03:15:00,
2013-06-13 23:25:00,77.0,73.2,29.85,WSW,247,0.0,0.0,88,0.00,,,0.00,Wunderground v.1.15,2013-06-14 03:25:00,
2013-06-13 23:35:00,76.8,73.3,29.87,WSW,247,0.0,0.0,89,0.00,,,0.00,Wunderground v.1.15,2013-06-14 03:35:00,
2013-06-13 23:45:00,76.5,73.3,29.87,WSW,247,0.0,0.0,90,0.00,,,0.00,Wunderground v.1.15,2013-06-14 03:45:00,
2013-06-13 23:50:00,76.5,73.3,29.86,WSW,247,0.0,0.0,90,0.00,,,0.00,Wunderground v.1.15,2013-06-14 03:50:00,